Time,TemperatureF,DewpointF,PressureIn,WindDirection,WindDirectionDegrees,WindSpeedMPH,WindSpeedGustMPH,Humidity,HourlyPrecipIn,Conditions,Clouds,dailyrainin,SoftwareType,DateUTC
2013-02-07 00:00:00,59.1,55.9,29.89,South,173,8.0,10.0,89,0.00,,,0.00,Wunderground v.1.15,2013-02-07 06:00:00,
2013-02-07 00:06:00,59.2,56.0,29.89,South,170,8.0,11.0,89,0.00,,,0.00,Wunderground v.1.15,2013-02-07 06:06:00,
2013-02-07 00:12:00,59.2,56.0,29.89,SSE,157,7.0,10.0,89,0.00,,,0.00,Wunderground v.1.15,2013-02-07 06:12:00,
2013-02-07 00:18:00,59.4,56.2,29.89,SSE,167,7.0,10.0,89,0.00,,,0.00,Wunderground v.1.15,2013-02-07 06:18:00,
2013-02-07 00:23:00,59.5,56.3,29.89,SSE,149,7.0,10.0,89,0.00,,,0.00,Wunderground v.1.15,2013-02-07 06:23:00,
2013-02-07 00:29:00,59.5,56.3,29.89,SSE,149,7.0,10.0,89,0.00,,,0.00,Wunderground v.1.15,2013-02-07 06:29:00,
2013-02-07 00:35:00,59.6,56.4,29.89,SSE,155,6.0,10.0,89,0.00,,,0.00,Wunderground v.1.15,2013-02-07 06:35:00,
2013-02-07 00:41:00,59.7,56.5,29.89,South,170,7.0,10.0,89,0.00,,,0.00,Wunderground v.1.15,2013-02-07 06:41:00,
2013-02-07 00:47:00,59.8,56.6,29.89,SSE,159,6.0,10.0,89,0.00,,,0.00,Wunderground v.1.15,2013-02-07 06:47:00,
2013-02-07 00:52:00,59.8,56.6,29.89,SSE,150,6.0,10.0,89,0.00,,,0.00,Wunderground v.1.15,2013-02-07 06:52:00,
2013-02-07 00:58:00,59.8,56.6,29.89,SSE,166,7.0,10.0,89,0.00,,,0.00,Wunderground v.1.15,2013-02-07 06:58:00,
2013-02-07 01:03:00,59.8,56.6,29.89,SSE,158,6.0,10.0,89,0.00,,,0.00,Wunderground v.1.15,2013-02-07 07:03:00,
2013-02-07 01:08:00,59.9,56.6,29.89,South,169,6.0,10.0,89,0.00,,,0.00,Wunderground v.1.15,2013-02-07 07:08:00,
2013-02-07 01:14:00,59.9,56.6,29.89,SSE,156,7.0,11.0,89,0.00,,,0.00,Wunderground v.1.15,2013-02-07 07:14:00,
2013-02-07 01:20:00,59.9,57.0,29.89,South,170,6.0,10.0,90,0.00,,,0.00,Wunderground v.1.15,2013-02-07 07:20:00,
2013-02-07 01:26:00,60.0,57.1,29.89,SSE,163,5.0,10.0,90,0.00,,,0.00,Wunderground v.1.15,2013-02-07 07:26:00,
2013-02-07 01:32:00,60.0,57.1,29.89,SSE,159,6.0,10.0,90,0.00,,,0.00,Wunderground v.1.15,2013-02-07 07:32:00,
2013-02-07 01:38:00,60.0,57.1,29.89,SSW,204,6.0,10.0,90,0.00,,,0.00,Wunderground v.1.15,2013-02-07 07:38:00,
2013-02-07 01:44:00,60.0,57.1,29.89,SSE,153,5.0,10.0,90,0.00,,,0.00,Wunderground v.1.15,2013-02-07 07:44:00,
2013-02-07 01:49:00,60.0,57.1,29.89,SSW,207,7.0,11.0,90,0.00,,,0.00,Wunderground v.1.15,2013-02-07 07:49:00,
2013-02-07 01:55:00,60.0,57.1,29.89,SSW,211,7.0,12.0,90,0.00,,,0.00,Wunderground v.1.15,2013-02-07 07:55:00,
2013-02-07 02:01:00,59.9,57.0,29.88,SSW,205,7.0,10.0,90,0.00,,,0.00,Wunderground v.1.15,2013-02-07 08:01:00,
2013-02-07 02:07:00,59.9,57.0,29.89,SSW,211,7.0,10.0,90,0.00,,,0.00,Wunderground v.1.15,2013-02-07 08:07:00,
2013-02-07 02:13:00,59.8,57.2,29.88,South,180,6.0,10.0,91,0.00,,,0.00,Wunderground v.1.15,2013-02-07 08:13:00,
2013-02-07 02:19:00,59.8,57.2,29.88,South,172,6.0,10.0,91,0.00,,,0.00,Wunderground v.1.15,2013-02-07 08:19:00,
2013-02-07 02:25:00,59.7,57.1,29.88,South,184,7.0,10.0,91,0.00,,,0.00,Wunderground v.1.15,2013-02-07 08:25:00,
2013-02-07 02:31:00,59.7,57.1,29.88,SW,224,7.0,10.0,91,0.00,,,0.00,Wunderground v.1.15,2013-02-07 08:31:00,
2013-02-07 02:37:00,59.7,57.1,29.88,SSW,212,6.0,10.0,91,0.00,,,0.00,Wunderground v.1.15,2013-02-07 08:37:00,
2013-02-07 02:43:00,59.7,57.1,29.88,SW,226,7.0,11.0,91,0.00,,,0.00,Wunderground v.1.15,2013-02-07 08:43:00,
2013-02-07 02:48:00,59.7,57.1,29.88,South,189,8.0,11.0,91,0.00,,,0.00,Wunderground v.1.15,2013-02-07 08:48:00,
2013-02-07 02:53:00,59.6,57.0,29.88,SW,219,9.0,11.0,91,0.00,,,0.00,Wunderground v.1.15,2013-02-07 08:53:00,
2013-02-07 02:59:00,59.6,57.0,29.88,SW,222,9.0,12.0,91,0.00,,,0.00,Wunderground v.1.15,2013-02-07 08:59:00,
2013-02-07 03:05:00,59.7,57.1,29.88,SSW,205,9.0,11.0,91,0.00,,,0.00,Wunderground v.1.15,2013-02-07 09:05:00,
2013-02-07 03:11:00,59.7,57.1,29.88,SSW,211,9.0,10.0,91,0.00,,,0.00,Wunderground v.1.15,2013-02-07 09:11:00,
2013-02-07 03:17:00,59.7,57.1,29.88,SW,226,9.0,13.0,91,0.00,,,0.00,Wunderground v.1.15,2013-02-07 09:17:00,
2013-02-07 03:22:00,59.7,57.1,29.88,WSW,239,10.0,14.0,91,0.00,,,0.00,Wunderground v.1.15,2013-02-07 09:22:00,
2013-02-07 03:28:00,59.7,57.4,29.87,SW,222,10.0,14.0,92,0.00,,,0.00,Wunderground v.1.15,2013-02-07 09:28:00,
2013-02-07 03:34:00,59.7,57.4,29.87,SW,217,9.0,11.0,92,0.00,,,0.00,Wunderground v.1.15,2013-02-07 09:34:00,
2013-02-07 03:40:00,59.7,57.4,29.87,SW,214,8.0,8.0,92,0.00,,,0.00,Wunderground v.1.15,2013-02-07 09:40:00,
2013-02-07 03:46:00,59.6,57.3,29.87,SW,228,8.0,12.0,92,0.00,,,0.00,Wunderground v.1.15,2013-02-07 09:46:00,
2013-02-07 03:52:00,59.6,57.3,29.87,SW,228,9.0,11.0,92,0.00,,,0.00,Wunderground v.1.15,2013-02-07 09:52:00,
2013-02-07 03:58:00,59.5,57.2,29.87,SW,228,9.0,16.0,92,0.00,,,0.00,Wunderground v.1.15,2013-02-07 09:58:00,
2013-02-07 04:04:00,59.5,57.2,29.87,SW,226,8.0,10.0,92,0.00,,,0.00,Wunderground v.1.15,2013-02-07 10:04:00,
2013-02-07 04:10:00,59.5,57.5,29.87,SW,217,7.0,10.0,93,0.00,,,0.00,Wunderground v.1.15,2013-02-07 10:10:00,
2013-02-07 04:15:00,59.4,57.4,29.87,SW,214,7.0,10.0,93,0.00,,,0.00,Wunderground v.1.15,2013-02-07 10:15:00,
2013-02-07 04:21:00,59.2,57.2,29.87,SW,225,7.0,13.0,93,0.00,,,0.00,Wunderground v.1.15,2013-02-07 10:21:00,
2013-02-07 04:26:00,59.1,57.4,29.87,SW,222,8.0,13.0,94,0.00,,,0.00,Wunderground v.1.15,2013-02-07 10:26:00,
2013-02-07 04:32:00,59.0,57.3,29.87,SW,224,7.0,10.0,94,0.00,,,0.00,Wunderground v.1.15,2013-02-07 10:32:00,
2013-02-07 04:38:00,59.0,57.3,29.87,SW,222,6.0,10.0,94,0.00,,,0.00,Wunderground v.1.15,2013-02-07 10:38:00,
2013-02-07 04:44:00,59.0,57.3,29.87,SW,231,7.0,10.0,94,0.00,,,0.00,Wunderground v.1.15,2013-02-07 10:44:00,
2013-02-07 04:50:00,59.0,57.3,29.87,SSW,210,6.0,6.0,94,0.00,,,0.00,Wunderground v.1.15,2013-02-07 10:50:00,
2013-02-07 04:55:00,58.9,57.2,29.87,SSW,203,5.0,10.0,94,0.00,,,0.00,Wunderground v.1.15,2013-02-07 10:55:00,
2013-02-07 05:01:00,58.9,57.2,29.88,SSW,211,5.0,10.0,94,0.00,,,0.00,Wunderground v.1.15,2013-02-07 11:01:00,
2013-02-07 05:07:00,58.8,57.1,29.88,SW,228,6.0,10.0,94,0.00,,,0.00,Wunderground v.1.15,2013-02-07 11:07:00,
2013-02-07 05:13:00,58.8,57.1,29.88,SW,235,7.0,10.0,94,0.00,,,0.00,Wunderground v.1.15,2013-02-07 11:13:00,
2013-02-07 05:19:00,58.8,57.1,29.89,SSW,201,5.0,10.0,94,0.00,,,0.00,Wunderground v.1.15,2013-02-07 11:19:00,
2013-02-07 05:25:00,58.8,57.1,29.89,WSW,241,4.0,10.0,94,0.00,,,0.00,Wunderground v.1.15,2013-02-07 11:25:00,
2013-02-07 05:30:00,58.8,57.1,29.89,WSW,249,5.0,10.0,94,0.00,,,0.00,Wunderground v.1.15,2013-02-07 11:30:00,
2013-02-07 05:36:00,58.9,57.2,29.89,SW,233,6.0,10.0,94,0.00,,,0.00,Wunderground v.1.15,2013-02-07 11:36:00,
2013-02-07 05:41:00,58.9,57.2,29.89,SW,233,6.0,10.0,94,0.00,,,0.00,Wunderground v.1.15,2013-02-07 11:41:00,
2013-02-07 05:47:00,58.9,57.2,29.89,WSW,250,5.0,10.0,94,0.00,,,0.00,Wunderground v.1.15,2013-02-07 11:47:00,
2013-02-07 05:52:00,58.9,57.2,29.89,WSW,242,3.0,10.0,94,0.00,,,0.00,Wunderground v.1.15,2013-02-07 11:52:00,
2013-02-07 05:58:00,58.9,57.5,29.89,SW,225,3.0,10.0,95,0.00,,,0.00,Wunderground v.1.15,2013-02-07 11:58:00,
2013-02-07 06:04:00,58.9,57.2,29.89,SSW,204,3.0,10.0,94,0.00,,,0.00,Wunderground v.1.15,2013-02-07 12:04:00,
2013-02-07 06:10:00,59.0,57.3,29.89,WSW,249,4.0,10.0,94,0.00,,,0.00,Wunderground v.1.15,2013-02-07 12:10:00,
2013-02-07 06:16:00,59.1,57.4,29.89,SW,236,6.0,10.0,94,0.00,,,0.00,Wunderground v.1.15,2013-02-07 12:16:00,
2013-02-07 06:22:00,59.1,57.4,29.90,West,267,6.0,10.0,94,0.00,,,0.00,Wunderground v.1.15,2013-02-07 12:22:00,
2013-02-07 06:28:00,59.1,57.1,29.90,WSW,252,6.0,10.0,93,0.00,,,0.00,Wunderground v.1.15,2013-02-07 12:28:00,
2013-02-07 06:33:00,59.1,57.1,29.90,SW,233,6.0,10.0,93,0.00,,,0.00,Wunderground v.1.15,2013-02-07 12:33:00,
2013-02-07 06:38:00,59.1,57.1,29.90,WSW,255,6.0,10.0,93,0.00,,,0.00,Wunderground v.1.15,2013-02-07 12:38:00,
2013-02-07 06:44:00,59.1,57.1,29.90,WSW,257,4.0,10.0,93,0.00,,,0.00,Wunderground v.1.15,2013-02-07 12:44:00,
2013-02-07 06:50:00,59.2,57.2,29.90,WSW,243,4.0,10.0,93,0.00,,,0.00,Wunderground v.1.15,2013-02-07 12:50:00,
2013-02-07 06:55:00,59.2,57.2,29.91,WSW,241,4.0,10.0,93,0.00,,,0.00,Wunderground v.1.15,2013-02-07 12:55:00,
2013-02-07 07:01:00,59.1,56.8,29.90,WSW,250,5.0,10.0,92,0.00,,,0.00,Wunderground v.1.15,2013-02-07 13:01:00,
2013-02-07 07:07:00,59.1,56.8,29.90,WSW,249,4.0,10.0,92,0.00,,,0.00,Wunderground v.1.15,2013-02-07 13:07:00,
2013-02-07 07:13:00,59.2,56.9,29.91,WSW,243,4.0,10.0,92,0.00,,,0.00,Wunderground v.1.15,2013-02-07 13:13:00,
2013-02-07 07:19:00,59.1,56.8,29.91,WSW,242,5.0,10.0,92,0.00,,,0.00,Wunderground v.1.15,2013-02-07 13:19:00,
2013-02-07 07:25:00,59.2,56.9,29.91,SW,226,5.0,10.0,92,0.00,,,0.00,Wunderground v.1.15,2013-02-07 13:25:00,
2013-02-07 07:30:00,59.2,56.9,29.90,WSW,250,5.0,5.0,92,0.00,,,0.00,Wunderground v.1.15,2013-02-07 13:30:00,
2013-02-07 07:36:00,59.2,56.9,29.90,WSW,250,4.0,10.0,92,0.00,,,0.00,Wunderground v.1.15,2013-02-07 13:36:00,
2013-02-07 07:42:00,59.3,57.0,29.90,WSW,240,5.0,10.0,92,0.00,,,0.00,Wunderground v.1.15,2013-02-07 13:42:00,
2013-02-07 07:48:00,59.3,57.0,29.90,SW,236,5.0,10.0,92,0.00,,,0.00,Wunderground v.1.15,2013-02-07 13:48:00,
2013-02-07 07:54:00,59.3,57.0,29.90,SW,226,5.0,10.0,92,0.00,,,0.00,Wunderground v.1.15,2013-02-07 13:54:00,
2013-02-07 08:00:00,59.4,57.1,29.90,WSW,246,5.0,5.0,92,0.00,,,0.00,Wunderground v.1.15,2013-02-07 14:00:00,
2013-02-07 08:05:00,59.5,57.2,29.91,WSW,240,6.0,10.0,92,0.00,,,0.00,Wunderground v.1.15,2013-02-07 14:05:00,
2013-02-07 08:11:00,59.6,57.3,29.91,SW,235,6.0,10.0,92,0.00,,,0.00,Wunderground v.1.15,2013-02-07 14:11:00,
2013-02-07 08:16:00,59.7,57.1,29.91,SW,233,5.0,10.0,91,0.00,,,0.00,Wunderground v.1.15,2013-02-07 14:16:00,
2013-02-07 08:22:00,59.8,57.2,29.91,WSW,238,6.0,10.0,91,0.00,,,0.00,Wunderground v.1.15,2013-02-07 14:22:00,
2013-02-07 08:28:00,60.1,57.5,29.91,WSW,256,6.0,10.0,91,0.00,,,0.00,Wunderground v.1.15,2013-02-07 14:28:00,
2013-02-07 08:34:00,60.5,57.6,29.91,SW,226,6.0,10.0,90,0.00,,,0.00,Wunderground v.1.15,2013-02-07 14:34:00,
2013-02-07 08:39:00,60.8,57.8,29.91,SW,219,5.0,10.0,90,0.00,,,0.00,Wunderground v.1.15,2013-02-07 14:39:00,
2013-02-07 08:45:00,61.2,57.9,29.91,WSW,243,6.0,10.0,89,0.00,,,0.00,Wunderground v.1.15,2013-02-07 14:45:00,
2013-02-07 08:51:00,61.8,57.9,29.91,SW,233,7.0,10.0,87,0.00,,,0.00,Wunderground v.1.15,2013-02-07 14:51:00,
2013-02-07 08:57:00,62.4,58.2,29.91,WSW,255,8.0,11.0,86,0.00,,,0.00,Wunderground v.1.15,2013-02-07 14:57:00,
2013-02-07 09:02:00,62.8,58.2,29.92,West,262,8.0,10.0,85,0.00,,,0.00,Wunderground v.1.15,2013-02-07 15:02:00,
2013-02-07 09:08:00,63.1,57.9,29.92,WSW,257,10.0,15.0,83,0.00,,,0.00,Wunderground v.1.15,2013-02-07 15:08:00,
2013-02-07 09:13:00,63.4,58.1,29.92,WSW,249,12.0,14.0,83,0.00,,,0.00,Wunderground v.1.15,2013-02-07 15:13:00,
2013-02-07 09:18:00,63.9,58.3,29.92,West,269,11.0,14.0,82,0.00,,,0.00,Wunderground v.1.15,2013-02-07 15:18:00,
2013-02-07 09:24:00,64.2,58.2,29.92,WSW,256,10.0,14.0,81,0.00,,,0.00,Wunderground v.1.15,2013-02-07 15:24:00,
2013-02-07 09:30:00,64.1,58.1,29.92,West,259,11.0,12.0,81,0.00,,,0.00,Wunderground v.1.15,2013-02-07 15:30:00,
2013-02-07 09:35:00,64.3,58.3,29.92,West,273,12.0,14.0,81,0.00,,,0.00,Wunderground v.1.15,2013-02-07 15:35:00,
2013-02-07 09:41:00,64.6,58.3,29.92,WSW,246,11.0,16.0,80,0.00,,,0.00,Wunderground v.1.15,2013-02-07 15:41:00,
2013-02-07 09:46:00,64.7,58.0,29.92,WSW,252,12.0,19.0,79,0.00,,,0.00,Wunderground v.1.15,2013-02-07 15:46:00,
2013-02-07 09:51:00,64.6,58.3,29.92,WSW,244,14.0,14.0,80,0.00,,,0.00,Wunderground v.1.15,2013-02-07 15:51:00,
2013-02-07 09:57:00,64.9,58.2,29.92,WSW,256,15.0,16.0,79,0.00,,,0.00,Wunderground v.1.15,2013-02-07 15:57:00,
2013-02-07 10:03:00,65.1,58.4,29.91,WSW,250,14.0,17.0,79,0.00,,,0.00,Wunderground v.1.15,2013-02-07 16:03:00,
2013-02-07 10:09:00,66.0,58.6,29.91,West,266,13.0,17.0,77,0.00,,,0.00,Wunderground v.1.15,2013-02-07 16:09:00,
2013-02-07 10:15:00,66.4,59.0,29.92,SW,229,12.0,15.0,77,0.00,,,0.00,Wunderground v.1.15,2013-02-07 16:15:00,
2013-02-07 10:21:00,66.2,58.4,29.91,West,276,14.0,16.0,76,0.00,,,0.00,Wunderground v.1.15,2013-02-07 16:21:00,
2013-02-07 10:27:00,66.3,58.5,29.92,West,271,15.0,18.0,76,0.00,,,0.00,Wunderground v.1.15,2013-02-07 16:27:00,
2013-02-07 10:33:00,66.8,59.0,29.92,West,266,14.0,16.0,76,0.00,,,0.00,Wunderground v.1.15,2013-02-07 16:33:00,
2013-02-07 10:38:00,66.8,58.6,29.92,West,263,14.0,18.0,75,0.00,,,0.00,Wunderground v.1.15,2013-02-07 16:38:00,
2013-02-07 10:44:00,67.3,59.1,29.92,West,271,15.0,18.0,75,0.00,,,0.00,Wunderground v.1.15,2013-02-07 16:44:00,
2013-02-07 10:50:00,67.0,58.8,29.92,WSW,238,15.0,15.0,75,0.00,,,0.00,Wunderground v.1.15,2013-02-07 16:50:00,
2013-02-07 10:56:00,67.1,58.9,29.91,WSW,253,16.0,20.0,75,0.00,,,0.00,Wunderground v.1.15,2013-02-07 16:56:00,
2013-02-07 11:02:00,67.2,59.0,29.91,WSW,253,14.0,17.0,75,0.00,,,0.00,Wunderground v.1.15,2013-02-07 17:02:00,
2013-02-07 11:07:00,67.8,59.6,29.91,West,259,13.0,17.0,75,0.00,,,0.00,Wunderground v.1.15,2013-02-07 17:07:00,
2013-02-07 11:13:00,68.2,59.6,29.91,West,281,12.0,14.0,74,0.00,,,0.00,Wunderground v.1.15,2013-02-07 17:13:00,
2013-02-07 11:19:00,67.8,59.2,29.91,West,259,13.0,18.0,74,0.00,,,0.00,Wunderground v.1.15,2013-02-07 17:19:00,
2013-02-07 11:24:00,68.2,59.2,29.91,WSW,238,13.0,14.0,73,0.00,,,0.00,Wunderground v.1.15,2013-02-07 17:24:00,
2013-02-07 11:29:00,68.9,59.5,29.90,West,278,12.0,15.0,72,0.00,,,0.00,Wunderground v.1.15,2013-02-07 17:29:00,
2013-02-07 11:35:00,69.4,59.2,29.91,WSW,248,11.0,15.0,70,0.00,,,0.00,Wunderground v.1.15,2013-02-07 17:35:00,
2013-02-07 11:40:00,69.6,59.8,29.90,SW,236,10.0,10.0,71,0.00,,,0.00,Wunderground v.1.15,2013-02-07 17:40:00,
2013-02-07 11:46:00,69.8,59.6,29.90,WSW,256,10.0,16.0,70,0.00,,,0.00,Wunderground v.1.15,2013-02-07 17:46:00,
2013-02-07 11:51:00,70.1,59.5,29.90,West,278,10.0,11.0,69,0.00,,,0.00,Wunderground v.1.15,2013-02-07 17:51:00,
2013-02-07 11:56:00,70.5,59.4,29.90,WSW,245,10.0,13.0,68,0.00,,,0.00,Wunderground v.1.15,2013-02-07 17:56:00,
2013-02-07 12:02:00,70.7,59.2,29.90,WNW,285,11.0,13.0,67,0.00,,,0.00,Wunderground v.1.15,2013-02-07 18:02:00,
2013-02-07 12:07:00,71.2,58.8,29.90,West,262,10.0,13.0,65,0.00,,,0.00,Wunderground v.1.15,2013-02-07 18:07:00,
2013-02-07 12:13:00,71.9,59.5,29.90,West,271,8.0,12.0,65,0.00,,,0.00,Wunderground v.1.15,2013-02-07 18:13:00,
2013-02-07 12:19:00,72.6,59.7,29.90,West,269,8.0,12.0,64,0.00,,,0.00,Wunderground v.1.15,2013-02-07 18:19:00,
2013-02-07 12:25:00,72.7,58.5,29.89,WSW,256,10.0,14.0,61,0.00,,,0.00,Wunderground v.1.15,2013-02-07 18:25:00,
2013-02-07 12:30:00,72.9,58.7,29.89,West,274,11.0,11.0,61,0.00,,,0.00,Wunderground v.1.15,2013-02-07 18:30:00,
2013-02-07 12:35:00,73.4,58.7,29.89,West,264,9.0,11.0,60,0.00,,,0.00,Wunderground v.1.15,2013-02-07 18:35:00,
2013-02-07 12:40:00,73.3,58.6,29.89,WSW,248,9.0,10.0,60,0.00,,,0.00,Wunderground v.1.15,2013-02-07 18:40:00,
2013-02-07 12:46:00,73.7,58.5,29.88,West,281,10.0,11.0,59,0.00,,,0.00,Wunderground v.1.15,2013-02-07 18:46:00,
2013-02-07 12:52:00,74.1,58.4,29.88,West,280,9.0,10.0,58,0.00,,,0.00,Wunderground v.1.15,2013-02-07 18:52:00,
2013-02-07 12:57:00,74.6,58.4,29.88,WNW,284,10.0,15.0,57,0.00,,,0.00,Wunderground v.1.15,2013-02-07 18:57:00,
2013-02-07 13:03:00,74.3,58.6,29.88,West,273,10.0,11.0,58,0.00,,,0.00,Wunderground v.1.15,2013-02-07 19:03:00,
2013-02-07 13:09:00,74.9,58.1,29.87,WNW,283,10.0,12.0,56,0.00,,,0.00,Wunderground v.1.15,2013-02-07 19:09:00,
2013-02-07 13:15:00,75.5,58.7,29.86,WNW,288,10.0,10.0,56,0.00,,,0.00,Wunderground v.1.15,2013-02-07 19:15:00,
2013-02-07 13:21:00,75.8,58.0,29.86,West,266,9.0,10.0,54,0.00,,,0.00,Wunderground v.1.15,2013-02-07 19:21:00,
2013-02-07 13:27:00,76.1,57.2,29.86,West,263,9.0,11.0,52,0.00,,,0.00,Wunderground v.1.15,2013-02-07 19:27:00,
2013-02-07 13:32:00,76.7,55.5,29.85,West,281,9.0,14.0,48,0.00,,,0.00,Wunderground v.1.15,2013-02-07 19:32:00,
2013-02-07 13:38:00,77.9,56.0,29.85,WSW,257,10.0,14.0,47,0.00,,,0.00,Wunderground v.1.15,2013-02-07 19:38:00,
2013-02-07 13:43:00,78.2,55.1,29.85,WNW,290,10.0,13.0,45,0.00,,,0.00,Wunderground v.1.15,2013-02-07 19:43:00,
2013-02-07 13:48:00,78.2,55.1,29.85,WNW,300,10.0,14.0,45,0.00,,,0.00,Wunderground v.1.15,2013-02-07 19:48:00,
2013-02-07 13:54:00,78.2,54.5,29.84,West,274,10.0,17.0,44,0.00,,,0.00,Wunderground v.1.15,2013-02-07 19:54:00,
2013-02-07 14:00:00,78.1,53.8,29.84,WNW,295,10.0,10.0,43,0.00,,,0.00,Wunderground v.1.15,2013-02-07 20:00:00,
2013-02-07 14:06:00,79.3,50.0,29.84,West,281,10.0,12.0,36,0.00,,,0.00,Wunderground v.1.15,2013-02-07 20:06:00,
2013-02-07 14:12:00,79.8,50.5,29.84,WNW,301,10.0,11.0,36,0.00,,,0.00,Wunderground v.1.15,2013-02-07 20:12:00,
2013-02-07 14:18:00,80.3,46.9,29.84,NW,307,10.0,17.0,31,0.00,,,0.00,Wunderground v.1.15,2013-02-07 20:18:00,
2013-02-07 14:24:00,80.4,46.1,29.84,WNW,301,13.0,14.0,30,0.00,,,0.00,Wunderground v.1.15,2013-02-07 20:24:00,
2013-02-07 14:29:00,80.2,45.9,29.84,WNW,293,12.0,14.0,30,0.00,,,0.00,Wunderground v.1.15,2013-02-07 20:29:00,
2013-02-07 14:35:00,80.9,45.7,29.84,WNW,298,11.0,16.0,29,0.00,,,0.00,Wunderground v.1.15,2013-02-07 20:35:00,
2013-02-07 14:41:00,80.5,46.2,29.83,North,354,12.0,16.0,30,0.00,,,0.00,Wunderground v.1.15,2013-02-07 20:41:00,
2013-02-07 14:47:00,80.3,46.0,29.84,WNW,291,14.0,16.0,30,0.00,,,0.00,Wunderground v.1.15,2013-02-07 20:47:00,
2013-02-07 14:52:00,80.4,44.3,29.84,WNW,285,12.0,15.0,28,0.00,,,0.00,Wunderground v.1.15,2013-02-07 20:52:00,
2013-02-07 14:57:00,80.4,44.3,29.84,WNW,294,12.0,16.0,28,0.00,,,0.00,Wunderground v.1.15,2013-02-07 20:57:00,
2013-02-07 15:02:00,80.1,45.0,29.84,NW,309,13.0,14.0,29,0.00,,,0.00,Wunderground v.1.15,2013-02-07 21:02:00,
2013-02-07 15:07:00,80.1,44.0,29.84,NW,311,12.0,14.0,28,0.00,,,0.00,Wunderground v.1.15,2013-02-07 21:07:00,
2013-02-07 15:13:00,79.9,43.9,29.84,NW,308,13.0,18.0,28,0.00,,,0.00,Wunderground v.1.15,2013-02-07 21:13:00,
2013-02-07 15:18:00,79.9,43.9,29.84,WNW,302,12.0,18.0,28,0.00,,,0.00,Wunderground v.1.15,2013-02-07 21:18:00,
2013-02-07 15:23:00,80.0,44.0,29.84,NW,321,11.0,14.0,28,0.00,,,0.00,Wunderground v.1.15,2013-02-07 21:23:00,
2013-02-07 15:29:00,79.8,45.6,29.84,NNW,331,12.0,14.0,30,0.00,,,0.00,Wunderground v.1.15,2013-02-07 21:29:00,
2013-02-07 15:34:00,79.4,46.1,29.84,NW,315,12.0,18.0,31,0.00,,,0.00,Wunderground v.1.15,2013-02-07 21:34:00,
2013-02-07 15:40:00,79.5,45.3,29.84,WNW,282,11.0,11.0,30,0.00,,,0.00,Wunderground v.1.15,2013-02-07 21:40:00,
2013-02-07 15:46:00,79.8,46.5,29.84,WNW,290,11.0,16.0,31,0.00,,,0.00,Wunderground v.1.15,2013-02-07 21:46:00,
2013-02-07 15:51:00,79.5,45.3,29.84,NW,316,12.0,17.0,30,0.00,,,0.00,Wunderground v.1.15,2013-02-07 21:51:00,
2013-02-07 15:56:00,79.3,44.3,29.84,NW,319,12.0,17.0,29,0.00,,,0.00,Wunderground v.1.15,2013-02-07 21:56:00,
2013-02-07 16:02:00,79.4,42.5,29.84,NW,307,12.0,18.0,27,0.00,,,0.00,Wunderground v.1.15,2013-02-07 22:02:00,
2013-02-07 16:08:00,79.1,43.2,29.84,WNW,302,13.0,18.0,28,0.00,,,0.00,Wunderground v.1.15,2013-02-07 22:08:00,
2013-02-07 16:14:00,78.9,39.0,29.85,NNW,340,12.0,16.0,24,0.00,,,0.00,Wunderground v.1.15,2013-02-07 22:14:00,
2013-02-07 16:20:00,78.7,37.8,29.85,NW,311,13.0,14.0,23,0.00,,,0.00,Wunderground v.1.15,2013-02-07 22:20:00,
2013-02-07 16:26:00,78.1,38.4,29.85,NW,326,14.0,19.0,24,0.00,,,0.00,Wunderground v.1.15,2013-02-07 22:26:00,
2013-02-07 16:32:00,77.9,41.2,29.85,NW,326,15.0,19.0,27,0.00,,,0.00,Wunderground v.1.15,2013-02-07 22:32:00,
2013-02-07 16:38:00,77.6,40.0,29.86,NW,322,13.0,19.0,26,0.00,,,0.00,Wunderground v.1.15,2013-02-07 22:38:00,
2013-02-07 16:44:00,77.5,40.9,29.86,NW,322,12.0,15.0,27,0.00,,,0.00,Wunderground v.1.15,2013-02-07 22:44:00,
2013-02-07 16:50:00,77.2,38.6,29.86,NNW,329,12.0,12.0,25,0.00,,,0.00,Wunderground v.1.15,2013-02-07 22:50:00,